Tracking 25734 objects as of 27-May-2022
HD Live streaming from Space Station
objects crossing your sky now

COSMOS 1823

Track COSMOS 1823 now!
10-day predictions
COSMOS 1823 is classified as:


NORAD ID: 17535
Int'l Code: 1987-020A
Perigee: 1,485.5 km
Apogee: 1,530.6 km
Inclination: 73.6 °
Period: 116.0 minutes
Semi major axis: 7879 km
RCS: 13.63 m2 (large)
Launch date: February 20, 1987
Source: Commonwealth of Independent States (former USSR) (CIS)
Launch site: PLESETSK MISSILE AND SPACE COMPLEX (PKMTR)
aabbcc
Your satellite tracking list
Your tracking list is empty




NASA's NSSDC Master Catalog

Two Line Element Set (TLE):
1 17535U 87020A   22146.62745573 -.00000018  00000-0 -12163-5 0  9991
2 17535  73.6022 232.0270 0028626 210.2599 260.1473 12.41333498597889
Source of the keplerian elements: AFSPC